Location: Newark
(48.3747°N, 2.1544°E)
Time: 13:43:40
(UTC+00:00)

Envisat - Visible Passes

Search period start: 28 January 2020 00:00
Search period end: 07 February 2020 00:00
Orbit: 764 x 766 km, 98.1° (Epoch: 28 January)

Date Brightness Start Highest point End Pass type
(mag) Time Alt. Az. Time Alt. Az. Time Alt. Az.
28 Jan 4.6 06:01:25 10° NNE 06:06:09 38° E 06:10:52 10° SSE visible
28 Jan 3.0 17:19:25 10° SSE 17:24:29 71° ENE 17:29:34 10° N visible
28 Jan 5.9 19:00:45 10° SW 19:04:02 17° W 19:07:22 10° NW visible
29 Jan 5.9 05:25:28 10° NE 05:29:02 19° E 05:32:35 10° SE visible
29 Jan 4.8 18:22:17 10° SSW 18:26:54 34° W 18:31:33 10° NNW visible
30 Jan 3.6 06:26:41 10° NNE 06:31:45 63° ESE 06:36:47 10° S visible
30 Jan 3.3 17:44:54 10° S 17:49:57 71° WSW 17:55:04 10° NNW visible
31 Jan 5.1 05:50:17 10° NNE 05:54:47 31° E 05:59:15 10° SSE visible
31 Jan 5.6 18:48:48 10° SW 18:52:37 21° W 18:56:28 10° NW visible
01 Feb 6.1 05:14:40 10° NE 05:17:36 15° E 05:20:31 10° ESE visible
01 Feb 4.4 18:10:44 10° S 18:15:33 42° W 18:20:23 10° NNW visible
02 Feb 4.0 06:15:27 10° NNE 06:20:26 51° E 06:25:22 10° S visible
02 Feb 3.1 17:33:34 10° SSE 17:38:39 87° WSW 17:43:47 10° NNW visible
02 Feb 6.3 19:16:16 10° WSW 19:18:27 13° W 19:20:38 10° WNW visible
03 Feb 5.4 05:39:12 10° NE 05:43:24 25° E 05:47:33 10° SSE visible
03 Feb 5.3 18:37:00 10° SSW 18:41:13 26° W 18:45:28 10° NW visible
04 Feb 6.3 05:04:10 10° ENE 05:06:09 12° E 05:08:07 10° ESE visible
04 Feb 3.2 06:40:51 10° NNE 06:45:58 84° ESE 06:51:03 10° SSW visible
04 Feb 3.9 17:59:15 10° S 18:04:11 53° W 18:09:11 10° NNW visible
05 Feb 4.5 06:04:16 10° NNE 06:09:04 41° E 06:13:51 10° SSE visible
05 Feb 3.0 17:22:18 10° SSE 17:27:22 77° ENE 17:32:28 10° N visible
05 Feb 6.1 19:03:56 10° SW 19:07:00 16° W 19:10:03 10° NW visible
06 Feb 5.8 05:28:13 10° NE 05:31:58 20° E 05:35:43 10° SE visible
06 Feb 5.0 18:25:19 10° SSW 18:29:49 32° W 18:34:22 10° NNW visible
